Weather History for KAHN - January, 2014

Change the Weather History Date:

Friday, January 10, 2014

  Actual Average Record
Temperature  
Mean Temperature 43 °F 43 °F  
Max Temperature 47 °F 53 °F 75 °F (1937)
Min Temperature 38 °F 33 °F 4 °F (1886)
Degree Days  
Heating Degree Days 22 22  
Month to date heating degree days 313 220  
Since 1 July heating degree days 1414 1310  
Moisture  
Dew Point 41 °F    
Average Humidity 75    
Maximum Humidity 100    
Minimum Humidity 49    
Precipitation  
Precipitation 1.15 in 0.12 in 3.50 in (1895)
Month to date precipitation 1.55 1.22  
Year to date precipitation 1.55 1.22  
Snow  
Snow 0.00 in 0.10 in 4.30 in (2011)
Month to date snowfall 0.0 0.4  
Since 1 July snowfall 0.0 0.5  
Snow Depth 0.00 in    
Sea Level Pressure  
Sea Level Pressure 30.22 in    
Wind  
Wind Speed 7 mph (ENE)    
Max Wind Speed 13 mph    
Max Gust Speed 16 mph    
Visibility 2 miles    
Events Fog , Rain    
T = Trace of Precipitation, MM = Missing Value Source: NWS Daily Summary

Daily Weather History Graph

Daily Weather History Graph

Search for Another Location

Airport or City:

Trip Planner

Search our weather history database for the weather conditions in past years. The results will help you decide how hot, cold, wet, or windy it might be!

Date:

Astronomy

Jan. 10, 2014 Rise Set
Actual Time 7:39 AM EST 5:42 PM EST
Civil Twilight 7:11 AM EST 6:10 PM EST
Nautical Twilight 6:40 AM EST 6:41 PM EST
Astronomical Twilight 6:10 AM EST 7:11 PM EST
Moon 1:42 PM EST (1/10) 2:50 AM EST (1/10)
Length of Visible Light 10h 58m
Length of Day
10h 03m
Waxing Gibbous, 75% of the Moon is Illuminated
Jan 10
Waxing Gibbous
Jan 15
Full
Jan 24
Last Quarter
Jan 30
New
Feb 6
First Quarter

Hourly Weather History & Observations

Time (EST) Temp. Windchill Dew Point Humidity Pressure Visibility Wind Dir Wind Speed Gust Speed Precip Events Conditions
12:51 AM 41.0 °F 36.4 °F 34.0 °F 76% 30.39 in 10.0 mi NNE 6.9 mph - 0.00 in Rain Light Rain
1:51 AM 39.0 °F 34.0 °F 36.0 °F 89% 30.36 in 3.0 mi North 6.9 mph - 0.04 in Rain Light Rain
2:36 AM 39.2 °F 33.0 °F 37.4 °F 93% 30.33 in 2.0 mi NE 9.2 mph - 0.03 in Rain Light Rain
2:42 AM 39.2 °F 33.6 °F 37.4 °F 93% 30.33 in 3.0 mi NE 8.1 mph - 0.03 in Rain Light Rain
2:51 AM 39.0 °F 34.0 °F 37.0 °F 93% 30.34 in 3.0 mi NE 6.9 mph - 0.03 in Rain Light Rain
3:24 AM 39.2 °F 33.6 °F 37.4 °F 93% 30.31 in 4.0 mi NE 8.1 mph - 0.01 in   Overcast
3:51 AM 39.0 °F 33.4 °F 37.0 °F 93% 30.33 in 2.5 mi NE 8.1 mph - 0.01 in Rain Light Rain
4:37 AM 37.4 °F 31.4 °F 37.4 °F 100% 30.30 in 1.2 mi NE 8.1 mph - 0.06 in Rain Heavy Rain
4:51 AM 39.0 °F 34.8 °F 37.0 °F 93% 30.31 in 1.8 mi NE 5.8 mph - 0.14 in Rain Light Rain
4:58 AM 39.2 °F 34.2 °F 37.4 °F 93% 30.29 in 2.5 mi ENE 6.9 mph - 0.00 in Rain Light Rain
5:05 AM 39.2 °F 33.0 °F 37.4 °F 93% 30.29 in 3.0 mi ENE 9.2 mph - 0.00 in   Overcast
5:41 AM 39.2 °F 33.6 °F 37.4 °F 93% 30.29 in 2.5 mi ENE 8.1 mph - 0.01 in Rain Light Rain
5:51 AM 39.0 °F 31.8 °F 37.9 °F 96% 30.29 in 2.0 mi ENE 11.5 mph - 0.01 in Rain Light Rain
6:13 AM 39.2 °F 35.0 °F 37.4 °F 93% 30.28 in 3.0 mi NE 5.8 mph - 0.01 in   Overcast
6:22 AM 39.2 °F 33.0 °F 37.4 °F 93% 30.27 in 2.5 mi ENE 9.2 mph - 0.01 in   Overcast
6:35 AM 39.2 °F 35.0 °F 37.4 °F 93% 30.28 in 2.0 mi NE 5.8 mph - 0.01 in Rain Light Rain
6:44 AM 39.2 °F 32.5 °F 37.4 °F 93% 30.27 in 1.5 mi ENE 10.4 mph - 0.05 in Rain Heavy Rain
6:51 AM 39.9 °F 33.9 °F 37.9 °F 93% 30.27 in 2.0 mi ENE 9.2 mph - 0.06 in Rain Light Rain
7:11 AM 39.2 °F 33.6 °F 37.4 °F 93% 30.27 in 4.0 mi ENE 8.1 mph - 0.02 in Rain Light Rain
7:36 AM 39.2 °F 34.2 °F 39.2 °F 100% 30.28 in 1.8 mi ENE 6.9 mph - 0.06 in Rain Heavy Rain
7:51 AM 39.9 °F 33.4 °F 39.0 °F 97% 30.29 in 1.0 mi East 10.4 mph - 0.27 in Rain Heavy Rain
8:00 AM 39.2 °F 33.0 °F 39.2 °F 100% 30.28 in 2.0 mi NE 9.2 mph - 0.04 in Rain Light Rain
8:07 AM 39.2 °F 35.9 °F 39.2 °F 100% 30.29 in 3.0 mi North 4.6 mph - 0.05 in Rain Light Rain
8:29 AM 39.2 °F 35.0 °F 39.2 °F 100% 30.29 in 1.8 mi North 5.8 mph - 0.06 in Rain Light Rain
8:42 AM 39.2 °F 35.9 °F 39.2 °F 100% 30.30 in 1.0 mi North 4.6 mph - 0.12 in Rain Rain
8:51 AM 41.0 °F 37.1 °F 39.0 °F 93% 30.30 in 2.0 mi NE 5.8 mph - 0.12 in Rain Light Rain
9:04 AM 41.0 °F 38.0 °F 39.2 °F 93% 30.29 in 1.8 mi NE 4.6 mph - 0.00 in Rain Light Rain
9:22 AM 41.0 °F 38.0 °F 39.2 °F 93% 30.30 in 2.0 mi NE 4.6 mph - 0.03 in Rain Light Rain
9:30 AM 41.0 °F 37.1 °F 39.2 °F 93% 30.30 in 1.8 mi NE 5.8 mph - 0.03 in Rain Rain
9:51 AM 42.1 °F 36.6 °F 39.9 °F 92% 30.31 in 3.0 mi NE 9.2 mph - 0.05 in Rain Light Rain
9:54 AM 42.8 °F 38.6 °F 39.2 °F 87% 30.30 in 2.5 mi NE 6.9 mph - 0.00 in Rain Light Rain
10:04 AM 42.8 °F 38.6 °F 39.2 °F 87% 30.30 in 1.8 mi NE 6.9 mph - 0.01 in Rain Light Rain
10:13 AM 42.8 °F 38.6 °F 39.2 °F 87% 30.29 in 2.0 mi NE 6.9 mph - 0.02 in Rain Light Rain
10:28 AM 42.8 °F 38.6 °F 41.0 °F 93% 30.29 in 3.0 mi NE 6.9 mph - 0.02 in   Overcast
10:41 AM 42.8 °F 38.6 °F 41.0 °F 93% 30.29 in 2.0 mi NE 6.9 mph - 0.02 in Rain Light Rain
10:48 AM 42.8 °F 38.0 °F 41.0 °F 93% 30.28 in 1.5 mi NE 8.1 mph - 0.03 in Rain Light Rain
10:51 AM 43.0 °F 38.8 °F 41.0 °F 93% 30.30 in 1.8 mi ENE 6.9 mph - 0.03 in Rain Light Rain
10:58 AM 42.8 °F 37.5 °F 41.0 °F 93% 30.28 in 2.0 mi ENE 9.2 mph - 0.00 in Rain Light Rain
11:05 AM 42.8 °F 37.5 °F 41.0 °F 93% 30.28 in 1.2 mi ENE 9.2 mph - 0.00 in Rain Light Rain
11:16 AM 42.8 °F 38.6 °F 41.0 °F 93% 30.27 in 1.5 mi NE 6.9 mph - 0.01 in Rain Light Rain
11:40 AM 44.6 °F 40.7 °F 42.8 °F 93% 30.25 in 1.2 mi NE 6.9 mph - 0.02 in Rain Light Rain
11:45 AM 44.6 °F 40.2 °F 42.8 °F 93% 30.25 in 2.0 mi ENE 8.1 mph - 0.03 in Rain Light Rain
11:51 AM 44.1 °F 40.1 °F 42.1 °F 93% 30.26 in 2.5 mi NE 6.9 mph - 0.03 in Rain Light Rain
12:29 PM 44.6 °F 40.2 °F 42.8 °F 93% 30.21 in 3.0 mi NE 8.1 mph - 0.00 in   Overcast
12:51 PM 45.0 °F 41.8 °F 43.0 °F 93% 30.21 in 3.0 mi NE 5.8 mph - 0.00 in Rain Light Rain
1:03 PM 44.6 °F 40.7 °F 42.8 °F 93% 30.19 in 1.8 mi NE 6.9 mph - 0.00 in Rain Light Rain
1:12 PM 44.6 °F 40.7 °F 42.8 °F 93% 30.19 in 1.2 mi ENE 6.9 mph - 0.01 in Rain Light Rain
1:20 PM 44.6 °F 41.4 °F 44.6 °F 100% 30.18 in 2.0 mi ENE 5.8 mph - 0.01 in Rain Light Rain
1:39 PM 44.6 °F 43.1 °F 44.6 °F 100% 30.17 in 1.5 mi ENE 3.5 mph - 0.01 in Rain Light Rain
1:51 PM 46.0 °F 42.5 °F 44.1 °F 93% 30.18 in 1.8 mi ENE 6.9 mph - 0.02 in Rain Light Rain
2:04 PM 46.4 °F 42.4 °F 44.6 °F 93% 30.16 in 2.5 mi ENE 8.1 mph - 0.00 in   Overcast
2:21 PM 46.4 °F 42.4 °F 44.6 °F 93% 30.15 in 1.5 mi ENE 8.1 mph - 0.00 in   Overcast
2:36 PM 46.4 °F 41.9 °F 44.6 °F 93% 30.14 in 2.0 mi ENE 9.2 mph - 0.00 in   Overcast
2:51 PM 46.9 °F - 45.0 °F 93% 30.16 in 3.0 mi ENE 5.8 mph - 0.00 in   Overcast
3:13 PM 46.4 °F 42.9 °F 44.6 °F 93% 30.14 in 2.5 mi ENE 6.9 mph - N/A   Overcast
3:24 PM 46.4 °F 42.9 °F 44.6 °F 93% 30.14 in 1.5 mi ENE 6.9 mph - N/A   Overcast
3:38 PM 46.4 °F 42.9 °F 44.6 °F 93% 30.13 in 2.0 mi ENE 6.9 mph - 0.01 in   Overcast
3:49 PM 46.4 °F 43.5 °F 44.6 °F 93% 30.14 in 1.8 mi NE 5.8 mph - 0.01 in   Overcast
3:51 PM 46.9 °F - 45.0 °F 93% 30.15 in 1.5 mi NE 5.8 mph - 0.01 in Rain Light Rain
4:18 PM 46.4 °F 43.5 °F 44.6 °F 93% 30.14 in 3.0 mi ENE 5.8 mph - 0.01 in   Overcast
4:36 PM 46.4 °F 42.9 °F 44.6 °F 93% 30.14 in 1.8 mi ENE 6.9 mph - 0.01 in   Overcast
4:51 PM 46.9 °F - 45.0 °F 93% 30.15 in 1.0 mi ENE 6.9 mph - 0.01 in   Overcast
5:07 PM 46.4 °F 42.9 °F 44.6 °F 93% 30.13 in 1.5 mi ENE 6.9 mph - N/A   Overcast
5:27 PM 46.4 °F 43.5 °F 44.6 °F 93% 30.13 in 1.0 mi ENE 5.8 mph - N/A   Overcast
5:51 PM 46.0 °F 43.1 °F 45.0 °F 96% 30.14 in 1.0 mi ENE 5.8 mph - N/A   Overcast
6:47 PM 46.4 °F 43.5 °F 44.6 °F 93% 30.12 in 1.5 mi ENE 5.8 mph - 0.01 in   Overcast
6:51 PM 46.0 °F 42.5 °F 45.0 °F 96% 30.13 in 1.2 mi East 6.9 mph - 0.01 in   Overcast
7:47 PM 46.4 °F 42.9 °F 44.6 °F 93% 30.11 in 0.8 mi East 6.9 mph - N/A   Overcast
7:51 PM 46.0 °F 43.1 °F 45.0 °F 96% 30.12 in 0.8 mi ENE 5.8 mph - N/A   Overcast
8:00 PM 46.4 °F 43.5 °F 44.6 °F 93% 30.11 in 1.0 mi ENE 5.8 mph - N/A   Overcast
8:51 PM 46.0 °F 43.9 °F 45.0 °F 96% 30.11 in 1.2 mi ENE 4.6 mph - N/A   Overcast
9:51 PM 46.0 °F 42.5 °F 45.0 °F 96% 30.09 in 0.8 mi East 6.9 mph - 0.01 in   Overcast
10:11 PM 46.4 °F - 44.6 °F 93% 30.08 in 0.5 mi Calm Calm - N/A Fog Fog
10:51 PM 46.0 °F 43.9 °F 45.0 °F 96% 30.08 in 0.5 mi East 4.6 mph - N/A Fog Fog
11:22 PM 46.4 °F 44.3 °F 44.6 °F 93% 30.06 in 0.8 mi East 4.6 mph - 0.02 in Rain Rain
11:36 PM 46.4 °F - 44.6 °F 93% 30.06 in 1.2 mi Calm Calm - 0.24 in Rain Heavy Rain
11:44 PM 46.4 °F 43.5 °F 44.6 °F 93% 30.05 in 1.8 mi East 5.8 mph - 0.30 in Rain Light Rain
11:46 PM 46.4 °F 44.3 °F 44.6 °F 93% 30.05 in 3.0 mi ESE 4.6 mph - 0.30 in Rain Light Rain
11:51 PM 46.0 °F 44.8 °F 45.0 °F 96% 30.06 in 3.0 mi East 3.5 mph - 0.30 in Rain Light Rain